This demonstration page uses our WeatherBlox Daily Observations layout. Learn more.

Left ArrowRight Arrow

Hourly Observations for December 21, 2017

Temp ( °F °C ) Dew Point ( °F °C ) Humidity (%) Winds ( mph kmh ) Pressure ( in mb ) Visibility ( mi km ) Precip ( " mm )
12:15 am 00:15 Clear 32 undefined 27 -3 80 80 N 5 7 30.12 1020 10 16 N/A
12:35 am 00:35 Clear 32 undefined 27 -3 80 80 NNW 5 7 30.12 1020 10 16 N/A
12:55 am 00:55 Clear 30 -1 27 -3 86 86 N N/A 30.12 1020 10 16 N/A
1:15 am 01:15 Clear 30 -1 27 -3 86 86 NW 3 6 30.15 1021 10 16 N/A
1:35 am 01:35 Clear 30 -1 27 -3 86 86 NNW 5 7 30.15 1021 10 16 N/A
1:55 am 01:55 Clear 32 undefined 25 -4 75 75 NNW 6 9 30.15 1021 10 16 N/A
2:15 am 02:15 Clear 30 -1 27 -3 86 86 N 7 11 30.15 1021 10 16 N/A
2:35 am 02:35 Clear 32 undefined 23 -5 69 69 N 6 9 30.15 1021 10 16 N/A
2:55 am 02:55 Clear 32 undefined 25 -4 75 75 N 6 9 30.15 1021 10 16 N/A
3:15 am 03:15 Clear 32 undefined 25 -4 75 75 N 6 9 30.15 1021 10 16 N/A
3:35 am 03:35 Clear 32 undefined 23 -5 69 69 NNW 5 7 30.15 1021 10 16 N/A
3:55 am 03:55 Clear 30 -1 25 -4 80 80 N N/A 30.15 1021 10 16 N/A
4:15 am 04:15 Clear 30 -1 25 -4 80 80 N N/A 30.15 1021 10 16 N/A
4:35 am 04:35 Clear 30 -1 25 -4 80 80 N 6 9 30.18 1022 10 16 N/A
4:55 am 04:55 Clear 32 undefined 27 -3 80 80 NE 5 7 30.18 1022 10 16 N/A
5:15 am 05:15 Clear 32 undefined 25 -4 75 75 N N/A 30.18 1022 10 16 N/A
5:35 am 05:35 Clear 28 -2 25 -4 86 86 N 3 6 30.18 1022 10 16 N/A
5:55 am 05:55 Clear 30 -1 27 -3 86 86 N N/A 30.18 1022 10 16 N/A
6:15 am 06:15 Clear 30 -1 25 -4 80 80 NNW 3 6 30.21 1023 10 16 N/A
6:35 am 06:35 Clear 30 -1 27 -3 86 86 N N/A 30.21 1023 10 16 N/A
6:55 am 06:55 Clear 28 -2 25 -4 86 86 NNW 3 6 30.21 1023 10 16 N/A
7:15 am 07:15 Clear 28 -2 25 -4 86 86 N 5 7 30.24 1024 10 16 N/A
7:35 am 07:35 Sunny 28 -2 25 -4 86 86 N N/A 30.24 1024 10 16 N/A
7:55 am 07:55 Sunny 30 -1 27 -3 86 86 N N/A 30.24 1024 10 16 N/A
8:15 am 08:15 Sunny 30 -1 27 -3 86 86 N N/A 30.27 1025 10 16 N/A
8:35 am 08:35 Sunny 32 undefined 27 -3 80 80 N N/A 30.27 1025 10 16 N/A
8:55 am 08:55 Sunny 32 undefined 28 -2 87 87 N N/A 30.27 1025 10 16 N/A
9:15 am 09:15 Sunny 34 1 28 -2 81 81 N N/A 30.27 1025 10 16 N/A
9:35 am 09:35 Sunny 36 2 27 -3 70 70 N N/A 30.30 1026 10 16 N/A
9:55 am 09:55 Sunny 36 2 25 -4 65 65 E 3 6 30.30 1026 10 16 N/A
10:15 am 10:15 Sunny 37 3 27 -3 65 65 N N/A 30.30 1026 10 16 N/A
10:35 am 10:35 Sunny 37 3 27 -3 65 65 N N/A 30.30 1026 10 16 N/A
10:55 am 10:55 Sunny 39 4 27 -3 61 61 N N/A 30.30 1026 10 16 N/A
11:15 am 11:15 Sunny 39 4 25 -4 56 56 N N/A 30.30 1026 10 16 N/A
11:35 am 11:35 Sunny 41 5 27 -3 57 57 N N/A 30.27 1025 10 16 N/A
11:55 am 11:55 Sunny 41 5 25 -4 53 53 N N/A 30.27 1025 10 16 N/A
12:15 pm 12:15 Sunny 41 5 25 -4 53 53 N N/A 30.27 1025 10 16 N/A
12:35 pm 12:35 Sunny 43 6 23 -5 46 46 N N/A 30.27 1025 10 16 N/A
12:55 pm 12:55 Sunny 43 6 23 -5 46 46 N N/A 30.24 1024 10 16 N/A
1:15 pm 13:15 Sunny 43 6 23 -5 46 46 N N/A 30.24 1024 10 16 N/A
1:35 pm 13:35 Sunny 45 7 23 -5 42 42 N N/A 30.24 1024 10 16 N/A
1:55 pm 13:55 Sunny 45 7 23 -5 42 42 N N/A 30.24 1024 10 16 N/A
2:15 pm 14:15 Sunny 45 7 23 -5 42 42 SSW 5 7 30.24 1024 10 16 N/A
2:35 pm 14:35 Sunny 46 8 23 -5 40 40 S 6 9 30.24 1024 10 16 N/A
2:55 pm 14:55 Sunny 45 7 25 -4 46 46 SSW 5 7 30.24 1024 10 16 N/A
3:15 pm 15:15 Sunny 45 7 23 -5 42 42 S 5 7 30.24 1024 10 16 N/A
3:35 pm 15:35 Sunny 45 7 23 -5 42 42 S 5 7 30.24 1024 10 16 N/A
3:55 pm 15:55 Sunny 45 7 23 -5 42 42 N N/A 30.24 1024 10 16 N/A
4:15 pm 16:15 Sunny 45 7 23 -5 42 42 N N/A 30.21 1023 10 16 N/A
4:35 pm 16:35 Sunny 45 7 23 -5 42 42 SE 5 7 30.21 1023 10 16 N/A
4:55 pm 16:55 Clear 43 6 23 -5 46 46 N N/A 30.24 1024 10 16 N/A
5:15 pm 17:15 Clear 43 6 23 -5 46 46 SSE 3 6 30.24 1024 10 16 N/A
5:35 pm 17:35 Clear 43 6 23 -5 46 46 S 3 6 30.24 1024 10 16 N/A
5:55 pm 17:55 Clear 43 6 23 -5 46 46 N N/A 30.24 1024 10 16 N/A
6:15 pm 18:15 Clear 41 5 25 -4 53 53 SE 5 7 30.27 1025 10 16 N/A
6:35 pm 18:35 Clear 41 5 25 -4 53 53 SSE 5 7 30.24 1024 10 16 N/A
6:55 pm 18:55 Clear 41 5 25 -4 53 53 SSE 5 7 30.27 1025 10 16 N/A
7:15 pm 19:15 Clear 37 3 27 -3 65 65 SE 3 6 30.27 1025 10 16 N/A
7:35 pm 19:35 Clear 36 2 27 -3 70 70 SE 5 7 30.27 1025 10 16 N/A
7:55 pm 19:55 Clear 36 2 27 -3 70 70 N N/A 30.27 1025 10 16 N/A
8:15 pm 20:15 Clear 32 undefined 28 -2 87 87 N N/A 30.27 1025 10 16 N/A
8:35 pm 20:35 Clear 32 undefined 27 -3 80 80 N N/A 30.27 1025 10 16 N/A
8:55 pm 20:55 Clear 32 undefined 27 -3 80 80 N N/A 30.27 1025 10 16 N/A
9:15 pm 21:15 Clear 32 undefined 28 -2 87 87 N N/A 30.27 1025 10 16 N/A
9:35 pm 21:35 Clear 34 1 27 -3 75 75 N N/A 30.27 1025 10 16 N/A
9:55 pm 21:55 Clear 32 undefined 27 -3 80 80 N N/A 30.27 1025 10 16 N/A
10:15 pm 22:15 Clear 32 undefined 27 -3 80 80 N N/A 30.27 1025 10 16 N/A
10:35 pm 22:35 Mostly Cloudy 32 undefined 27 -3 80 80 N N/A 30.27 1025 10 16 N/A
10:55 pm 22:55 Cloudy 32 undefined 28 -2 87 87 N N/A 30.27 1025 10 16 N/A
11:15 pm 23:15 Cloudy 34 1 28 -2 81 81 SSE 5 7 30.27 1025 10 16 N/A
11:35 pm 23:35 Cloudy 36 2 28 -2 75 75 SSE 3 6 30.27 1025 10 16 N/A
11:55 pm 23:55 Cloudy 36 2 30 -1 81 81 S 3 6 30.27 1025 10 16 N/A

Powered by AerisWeather